User: anonymous   Login
Location: Tyler Bend Campground
(35.9875°N, 92.7606°W)
Time: 12:31:46
(UTC-05:00)
Language:

CZ-2C R/B - Orbit

View from above orbital plane
View from above orbital plane
View from above satellite
View from above satellite

Ground track
Ground track

The orbit data is extracted from the following two-line orbital elements,

1 36089U 09061B   15089.06636316  .00000609  00000-0  16379-3 0  9990
2 36089 098.0780 115.4713 0082748 020.9722 067.2331 14.49397701284341
Epoch (UTC): 30 March 2015 01:35:33
Eccentricity: 0.0082748
inclination: 98.0780°
perigee height: 669 km
apogee height: 786 km
right ascension of ascending node: 115.4713°
argument of perigee: 20.9722°
revolutions per day: 14.49397701
mean anomaly at epoch: 67.2331°
orbit number at epoch: 28434

The dashed part of the orbit path shows where the satellite is in the earth's shadow,  

DLR